User: anonymous   Login
Location: Unspecified
(0.0000°N, 0.0000°E)
Time: 19:07:41
(UTC+00:00)
Language:

Picosat 9 - Orbit

View from above orbital plane
View from above orbital plane
View from above satellite
View from above satellite

Ground track
Ground track

The orbit data is extracted from the following two-line orbital elements,

1 26930U 01043B   19341.15946967 -.00000071  00000-0  47768-5 0  9999
2 26930  67.0011 234.2066 0009642 294.2434  65.7659 14.30704818949779
Epoch (UTC): 07 December 2019 03:49:38
Eccentricity: 0.0009642
inclination: 67.0011°
perigee height: 782 km
apogee height: 796 km
right ascension of ascending node: 234.2066°
argument of perigee: 294.2434°
revolutions per day: 14.30704818
mean anomaly at epoch: 65.7659°
orbit number at epoch: 94977

The dashed part of the orbit path shows where the satellite is in the earth's shadow,  

DLR